Main page
METAR-TAF:

METAR-TAF

Airports :

Lismore Airport

Lismore, Australia

latitude: 28-49-41S, longitude: 153-15-36E, elevation: 11 m

Current weather observation

The report was made 33 minutes ago, at 16:00 UTC
Wind 4 kt from the East
Temperature 15°C
Humidity 94%
Pressure 1020 hPa
Visibility 10 km or more
Broken clouds at a height of 3700 ft
Broken clouds at a height of 4900 ft

METAR: YLIS 281600Z AUTO 10004KT 9999 // BKN037 BKN049 15/14 Q1020

Time: 02:33 (16:33 UTC)


TAF: missing

Weather observations and forecasts of more than 4000 airports (METAR and TAF reports).

The available stations are represented by yellow and red dots on the map.

Hover mouse over dot to see the name of the station.

Then click to see weather observations and forecasts.

To change the map : click on the green buttons with a black cross to zoom in, on the green button with a dash to zoom out, or on the green arrows for adjacent maps.


METAR-TAF: